Overview Statistics Trail Chart Weather Telemetry Raw packets
 

This is the latest recevied weather packets stored in our database for station/object JA7ZQY-10. If no packets are shown the sender has not sent any weather packets the latest 10 day(s).

<< 51 52 53 54 55 56 57 >>
Time Temp. Humidity Pressure Rain* Wind** Luminosity Snow
1787792768 27.78° C 65% 1008.5 hPa 0 mm - - -
1787792169 27.22° C 70% 1008.5 hPa 0 mm - - -
1787791568 25.56° C 72% 1008.6 hPa 0 mm - - -
1787790968 25.56° C 72% 1008.5 hPa 0 mm - - -
1787790369 25° C 72% 1008.7 hPa 0 mm - - -
1787789769 25.56° C 71% 1008.9 hPa 0 mm - - -
1787789168 25.56° C 71% 1009 hPa 0 mm - - -
1787788569 26.11° C 71% 1009.4 hPa 0 mm - - -
1787787968 25.56° C 72% 1009.5 hPa 0 mm - - -
1787787368 24.44° C 75% 1009.4 hPa 0 mm - - -
1787786768 23.89° C 75% 1009.4 hPa 0 mm - - -
1787786168 23.89° C 75% 1009.2 hPa 0 mm - - -
1787785569 23.89° C 77% 1009.5 hPa 0 mm - - -
1787784969 23.33° C 78% 1009.4 hPa 0 mm - - -
1787784368 23.33° C 77% 1009.5 hPa 0 mm - - -
1787783768 23.33° C 78% 1009.2 hPa 0 mm - - -
1787783170 22.78° C 80% 1009.4 hPa 0 mm - - -
1787782569 22.78° C 81% 1009.3 hPa 0 mm - - -
1787781969 22.78° C 81% 1009.3 hPa 0 mm - - -
1787781368 22.78° C 81% 1009.3 hPa 0 mm - - -
1787780769 22.78° C 81% 1009.1 hPa 0 mm - - -
1787780169 22.78° C 84% 1009.2 hPa 0 mm - - -
1787779568 22.22° C 89% 1009.3 hPa 0 mm - - -
1787778970 21.67° C 90% 1009.1 hPa 0 mm - - -
1787778369 21.67° C 90% 1009.2 hPa 0 mm - - -

* Rain latest hour (hover to see other rain measurements)
** Current wind speed in m/s (hover to see current wind gust speed)